QPF
0.00 0.00 0.00 0.00 0.00 0.00 0.00 0.00 0.00 0.00 0.00 0.00 0.00 0.00 0.00 0.00 0.00 0.00 0.00 0.00 0.00 0.00 0.00 0.00 0.00 0.00 0.00 0.00 0.00 0.00 0.00 0.00 0.00 0.00 0.00 0.00 0.00 0.00 0.00 0.00 0.00 0.00 0.00 0.00 0.00
0.00 0.00 0.00 0.00 0.00 0.00 0.00 0.00 0.00 0.00 0.00 0.00 0.00 0.00 0.00 0.00 0.00 0.00 0.00 0.00 0.00 0.00 0.00 0.00 0.00 0.00 0.00 0.00 0.00 0.00 0.00 0.00 0.00 0.00 0.00 0.00 0.00 0.00 0.00 0.00 0.00 0.00 0.00 0.00 0.00
0.00 0.00 0.00 0.00 0.00 0.00 0.00 0.00 0.00 0.00 0.00 0.00 0.00 0.00 0.00 0.00 0.00 0.00 0.00 0.00 0.00 0.00 0.00 0.00 0.00 0.00 0.00 0.00 0.00 0.00 0.00 0.00 0.00 0.00 0.00 0.00 0.00 0.00 0.00 0.00 0.00 0.00 0.00 0.00 0.00
0.00 0.00 0.00 0.00 0.00 0.00 0.00 0.00 0.00 0.00 0.00 0.00 0.00 0.00 0.00 0.00 0.00 0.00 0.00 0.00 0.00 0.00 0.00 0.00 0.00 0.00 0.00 0.00 0.00 0.00 0.00 0.00 0.00 0.00 0.00 0.00 0.00 0.00 0.00 0.00 0.00 0.00 0.00 0.00 0.00
0.00 0.00 0.00 0.00 0.00 0.00 0.00 0.00 0.00 0.00 0.00 0.00 0.00 0.00 0.00 0.00 0.00 0.00 0.00 0.00 0.00 0.00 0.00 0.00 0.00 0.00 0.00 0.00 0.00 0.00 0.00 0.00 0.00 0.00 0.00 0.00 0.00 0.00 0.00 0.00 0.00 0.00 0.00 0.00 0.00
0.00 0.00 0.00 0.00 0.00 0.00 0.00 0.00 0.00 0.00 0.00 0.00 0.00 0.00 0.00 0.00 0.00 0.00 0.00 0.00 0.00 0.00 0.00 0.00 0.00 0.00 0.00 0.00 0.00 0.00 0.00 0.00 0.00 0.00 0.00 0.00 0.00 0.00 0.00 0.00 0.00 0.00 0.00 0.00 0.00
0.00 0.00 0.00 0.00 0.00 0.00 0.00 0.00 0.00 0.00 0.00 0.00 0.00 0.00 0.00 0.00 0.00 0.00 0.00 0.00 0.00 0.00 0.00 0.00 0.00 0.00 0.00 0.01 0.00 0.00 0.00 0.00 0.00 0.00 0.00 0.00 0.00 0.00 0.00 0.00 0.00 0.00 0.00 0.00 0.00
0.00 0.00 0.00 0.00 0.00 0.00 0.00 0.00 0.00 0.00 0.00 0.00 0.00 0.00 0.00 0.00 0.00 0.00 0.00 0.00 0.00 0.00 0.00 0.00 0.00 0.00 0.00 0.01 0.01 0.02 0.01 0.01 0.00 0.00 0.00 0.00 0.00 0.00 0.00 0.00 0.00 0.00 0.00 0.00 0.00
0.00 0.00 0.00 0.00 0.00 0.00 0.00 0.00 0.00 0.00 0.00 0.00 0.00 0.00 0.00 0.00 0.00 0.00 0.00 0.00 0.00 0.00 0.00 0.00 0.00 0.00 0.00 0.00 0.00 0.03 0.03 0.01 0.00 0.00 0.00 0.00 0.00 0.00 0.00 0.00 0.00 0.00 0.00 0.00 0.00
0.00 0.00 0.00 0.00 0.00 0.00 0.00 0.00 0.00 0.00 0.00 0.00 0.00 0.00 0.00 0.00 0.00 0.00 0.00 0.00 0.00 0.00 0.00 0.00 0.00 0.00 0.00 0.00 0.00 0.00 0.00 0.01 0.00 0.00 0.00 0.00 0.00 0.00 0.00 0.00 0.00 0.00 0.00 0.00 0.00
0.00 0.00 0.00 0.00 0.00 0.00 0.00 0.00 0.00 0.00 0.00 0.00 0.00 0.00 0.00 0.00 0.00 0.00 0.00 0.00 0.00 0.00 0.00 0.00 0.00 0.00 0.00 0.00 0.00 0.00 0.01 0.04 0.00 0.00 0.00 0.00 0.00 0.00 0.00 0.00 0.00 0.00 0.00 0.00 0.00
0.00 0.00 0.00 0.00 0.00 0.00 0.00 0.00 0.00 0.00 0.00 0.00 0.00 0.00 0.00 0.00 0.00 0.00 0.00 0.00 0.00 0.00 0.00 0.00 0.00 0.00 0.00 0.00 0.00 0.00 0.00 0.00 0.00 0.00 0.00 0.00 0.00 0.00 0.00 0.00 0.00 0.00 0.00 0.00 0.00
0.00 0.00 0.00 0.00 0.00 0.00 0.00 0.00 0.00 0.00 0.00 0.00 0.00 0.00 0.00 0.00 0.00 0.00 0.00 0.00 0.00 0.00 0.00 0.00 0.00 0.00 0.00 0.00 0.00 0.00 0.00 0.00 0.00 0.00 0.00 0.01 0.00 0.00 0.00 0.00 0.00 0.00 0.00 0.00 0.00
0.00 0.00 0.00 0.00 0.00 0.00 0.00 0.00 0.00 0.00 0.00 0.00 0.00 0.00 0.00 0.00 0.00 0.00 0.00 0.00 0.00 0.00 0.00 0.00 0.00 0.00 0.00 0.00 0.00 0.00 0.00 0.00 0.00 0.00 0.01 0.00 0.00 0.00 0.00 0.00 0.00 0.00 0.00 0.00 0.00
0.00 0.00 0.00 0.00 0.00 0.00 0.00 0.00 0.00 0.00 0.00 0.00 0.00 0.00 0.00 0.00 0.00 0.00 0.00 0.00 0.00 0.00 0.00 0.00 0.00 0.00 0.00 0.00 0.00 0.00 0.00 0.00 0.00 0.00 0.00 0.00 0.00 0.00 0.00 0.00 0.00 0.00 0.00 0.00 0.00
0.00 0.00 0.00 0.00 0.00 0.00 0.00 0.00 0.00 0.00 0.00 0.00 0.00 0.00 0.00 0.00 0.00 0.00 0.00 0.00 0.00 0.00 0.00 0.00 0.00 0.00 0.00 0.00 0.00 0.00 0.00 0.00 0.00 0.00 0.00 0.00 0.00 0.00 0.00 0.00 0.00 0.00 0.00 0.00 0.00
0.00 0.00 0.00 0.00 0.00 0.00 0.00 0.00 0.00 0.00 0.00 0.00 0.00 0.00 0.00 0.00 0.00 0.00 0.00 0.00 0.00 0.00 0.00 0.00 0.00 0.00 0.00 0.00 0.00 0.00 0.00 0.00 0.00 0.00 0.00 0.00 0.00 0.00 0.00 0.00 0.00 0.00 0.00 0.00 0.00
0.00 0.00 0.00 0.00 0.00 0.00 0.00 0.00 0.00 0.00 0.00 0.00 0.00 0.00 0.00 0.00 0.00 0.00 0.00 0.00 0.00 0.00 0.00 0.00 0.00 0.00 0.00 0.00 0.00 0.00 0.00 0.00 0.00 0.00 0.00 0.00 0.00 0.00 0.00 0.00 0.00 0.00 0.00 0.00 0.00
0.00 0.00 0.00 0.00 0.00 0.00 0.00 0.00 0.00 0.00 0.00 0.00 0.00 0.00 0.00 0.00 0.00 0.00 0.00 0.00 0.00 0.00 0.00 0.00 0.00 0.00 0.00 0.00 0.00 0.00 0.00 0.00 0.00 0.00 0.00 0.00 0.00 0.00 0.00 0.00 0.00 0.00 0.00 0.00 0.00
0.00 0.00 0.00 0.00 0.00 0.00 0.00 0.00 0.00 0.00 0.00 0.00 0.00 0.00 0.00 0.00 0.00 0.00 0.00 0.00 0.00 0.00 0.00 0.00 0.00 0.00 0.00 0.00 0.00 0.00 0.00 0.00 0.00 0.00 0.00 0.00 0.00 0.00 0.00 0.00 0.00 0.00 0.00 0.00 0.00
0.00 0.00 0.00 0.00 0.00 0.00 0.00 0.00 0.00 0.00 0.00 0.00 0.00 0.00 0.00 0.00 0.00 0.00 0.00 0.00 0.00 0.00 0.00 0.00 0.00 0.00 0.00 0.00 0.00 0.00 0.00 0.00 0.00 0.00 0.00 0.00 0.00 0.00 0.00 0.00 0.00 0.00 0.00 0.00 0.00
0.00 0.00 0.00 0.00 0.00 0.00 0.00 0.00 0.00 0.00 0.00 0.00 0.00 0.00 0.00 0.00 0.00 0.00 0.00 0.00 0.00 0.00 0.00 0.00 0.00 0.00 0.00 0.00 0.00 0.00 0.00 0.00 0.00 0.00 0.00 0.00 0.00 0.00 0.00 0.00 0.00 0.00 0.00 0.00 0.00
0.00 0.00 0.00 0.00 0.00 0.00 0.00 0.00 0.00 0.00 0.00 0.00 0.00 0.00 0.00 0.00 0.00 0.00 0.00 0.00 0.00 0.00 0.00 0.00 0.00 0.00 0.00 0.00 0.00 0.00 0.00 0.00 0.00 0.00 0.00 0.00 0.00 0.00 0.00 0.00 0.00 0.00 0.00 0.00 0.00
0.00 0.00 0.00 0.00 0.00 0.00 0.00 0.00 0.00 0.00 0.00 0.00 0.00 0.00 0.00 0.00 0.00 0.00 0.00 0.00 0.00 0.00 0.00 0.00 0.00 0.00 0.00 0.00 0.00 0.00 0.00 0.00 0.00 0.00 0.00 0.00 0.00 0.00 0.00 0.00 0.00 0.00 0.00 0.00 0.00
0.00 0.00 0.00 0.00 0.00 0.00 0.00 0.00 0.00 0.00 0.00 0.00 0.00 0.00 0.00 0.00 0.00 0.00 0.00 0.00 0.00 0.00 0.00 0.00 0.00 0.00 0.00 0.00 0.00 0.00 0.00 0.00 0.00 0.00 0.00 0.00 0.00 0.00 0.00 0.00 0.00 0.00 0.00 0.00 0.00
0.00 0.00 0.00 0.00 0.00 0.00 0.00 0.00 0.00 0.00 0.00 0.00 0.00 0.00 0.00 0.00 0.00 0.00 0.00 0.00 0.00 0.00 0.00 0.00 0.00 0.00 0.00 0.00 0.00 0.00 0.00 0.00 0.00 0.00 0.00 0.00 0.00 0.00 0.00 0.00 0.00 0.00 0.00 0.00 0.00
0.00 0.00 0.00 0.00 0.00 0.00 0.00 0.00 0.00 0.00 0.00 0.00 0.00 0.00 0.00 0.00 0.00 0.00 0.00 0.00 0.00 0.00 0.00 0.00 0.00 0.00 0.00 0.00 0.00 0.00 0.00 0.00 0.00 0.00 0.00 0.00 0.00 0.00 0.00 0.00 0.00 0.00 0.00 0.00 0.00
MSLP
1016.72 1016.41 1015.98 1015.52 1014.96 1014.37 1013.71 1013.04 1012.55 1012.01 1011.39 1010.82 1010.54 1009.75 1009.35 1008.46 1007.65 1007.62 1006.05 1003.69 1004.10 1004.69 1005.42 1006.01 1006.40 1006.37 1006.69 1007.17 1007.30 1007.51 1008.63 1009.16 1008.84 1009.00 1009.06 1009.06 1009.23 1009.61 1009.82 1010.32 1010.79 1011.26 1012.01 1012.60 1013.48
1016.79 1016.45 1016.01 1015.58 1015.10 1014.42 1013.72 1013.03 1012.40 1011.98 1011.30 1010.77 1010.28 1009.78 1009.33 1008.73 1007.85 1006.41 1003.27 1003.12 1003.86 1004.44 1005.46 1005.71 1006.00 1006.23 1006.68 1007.06 1007.14 1007.44 1008.25 1008.22 1007.65 1007.87 1008.26 1008.83 1009.28 1009.44 1010.05 1010.65 1011.29 1011.88 1012.56 1013.02 1013.69
1016.78 1016.45 1015.97 1015.47 1014.99 1014.41 1013.72 1012.96 1012.24 1011.79 1011.31 1010.71 1009.98 1009.80 1009.31 1008.83 1007.75 1004.21 1002.58 1003.13 1003.86 1004.30 1005.08 1005.23 1005.62 1006.29 1006.82 1006.81 1006.98 1007.26 1007.60 1007.37 1006.99 1007.13 1007.92 1008.79 1009.37 1009.61 1010.25 1010.88 1011.29 1011.88 1012.77 1013.40 1013.92
1016.69 1016.30 1015.84 1015.38 1014.81 1014.30 1013.58 1012.84 1012.08 1011.57 1011.26 1010.67 1009.85 1009.59 1009.09 1008.88 1006.65 1003.43 1002.74 1003.46 1004.01 1004.71 1005.07 1005.30 1005.74 1006.21 1006.57 1006.64 1006.81 1006.89 1007.04 1006.84 1007.02 1007.20 1008.15 1008.77 1009.29 1009.82 1010.13 1010.50 1010.89 1011.55 1012.42 1013.29 1013.98
1016.64 1016.23 1015.68 1015.17 1014.61 1014.06 1013.38 1012.65 1011.92 1011.28 1011.07 1010.55 1009.85 1009.49 1008.83 1007.91 1005.16 1003.14 1003.30 1003.66 1004.70 1005.08 1005.20 1005.44 1005.49 1005.76 1006.34 1006.64 1006.79 1006.78 1006.76 1006.57 1006.92 1007.53 1008.15 1008.83 1009.43 1009.92 1010.46 1010.68 1011.25 1011.86 1012.61 1013.28 1013.91
1016.64 1016.12 1015.58 1014.98 1014.36 1013.72 1013.07 1012.38 1011.65 1010.91 1010.70 1010.28 1009.78 1009.59 1009.14 1007.02 1003.93 1003.45 1003.79 1004.10 1004.41 1005.04 1005.27 1005.19 1005.33 1005.68 1006.40 1006.90 1007.02 1007.04 1006.82 1007.19 1007.52 1008.08 1008.69 1009.04 1009.90 1010.14 1010.80 1010.99 1011.58 1012.04 1012.65 1013.22 1013.58
1016.60 1016.07 1015.37 1014.69 1014.08 1013.43 1012.67 1011.87 1011.26 1010.46 1010.16 1009.84 1009.58 1009.51 1008.56 1005.45 1003.88 1003.78 1004.14 1004.39 1004.41 1004.41 1005.15 1005.01 1004.99 1005.55 1006.42 1007.24 1007.28 1007.50 1007.75 1008.07 1008.57 1008.68 1009.24 1009.46 1010.37 1010.45 1010.71 1011.06 1011.67 1012.18 1012.53 1012.92 1013.13
1016.43 1015.83 1015.22 1014.44 1013.67 1012.95 1012.10 1011.25 1010.68 1009.87 1009.34 1009.16 1009.27 1009.24 1007.29 1004.58 1004.36 1004.23 1004.35 1004.46 1004.49 1004.67 1005.12 1005.01 1004.90 1005.81 1006.73 1007.37 1008.09 1008.51 1008.78 1009.18 1009.30 1009.02 1009.75 1009.80 1010.55 1010.68 1010.94 1011.22 1011.85 1012.18 1012.45 1012.72 1012.87
1016.33 1015.67 1014.98 1014.22 1013.37 1012.47 1011.48 1010.54 1009.80 1009.26 1008.98 1008.98 1009.18 1008.77 1006.40 1004.50 1004.69 1003.66 1004.00 1004.08 1004.46 1004.96 1005.24 1005.08 1005.37 1006.48 1007.33 1008.27 1009.15 1009.60 1009.64 1009.62 1009.61 1009.33 1009.57 1010.08 1010.87 1010.49 1010.86 1011.23 1011.61 1011.89 1012.19 1012.34 1012.49
1016.23 1015.48 1014.74 1013.90 1013.04 1012.11 1011.04 1009.59 1009.36 1009.32 1009.12 1009.14 1008.84 1008.52 1005.73 1004.64 1003.78 1003.50 1003.71 1003.99 1004.43 1004.92 1005.53 1005.60 1006.37 1006.99 1007.91 1008.59 1009.02 1009.51 1009.81 1009.86 1009.58 1009.37 1009.68 1010.25 1010.45 1010.71 1010.95 1011.32 1011.41 1011.65 1011.88 1011.92 1012.04
1016.04 1015.34 1014.52 1013.65 1012.84 1011.89 1010.93 1009.75 1010.07 1009.72 1009.01 1008.14 1007.72 1006.94 1005.45 1004.53 1003.78 1003.54 1003.29 1003.72 1004.03 1004.81 1005.56 1005.86 1006.71 1006.99 1007.31 1007.67 1007.78 1008.19 1009.06 1009.70 1009.57 1009.30 1009.79 1010.31 1010.45 1010.63 1010.80 1011.25 1011.45 1011.66 1011.68 1011.72 1011.74
1015.84 1015.13 1014.36 1013.35 1012.49 1011.59 1011.40 1011.08 1011.42 1011.38 1009.82 1007.32 1006.94 1006.44 1005.31 1004.82 1004.51 1003.36 1002.89 1003.41 1004.04 1004.94 1005.53 1006.32 1006.40 1006.54 1006.81 1007.41 1007.62 1008.04 1008.76 1009.15 1009.39 1009.39 1009.89 1010.63 1010.72 1010.70 1010.88 1010.92 1010.98 1011.20 1011.47 1011.37 1011.68
1015.76 1014.93 1014.16 1013.11 1012.20 1011.76 1012.09 1011.35 1011.22 1010.94 1010.54 1007.11 1006.11 1005.40 1004.58 1004.52 1004.18 1003.46 1003.15 1003.14 1003.74 1004.78 1005.30 1005.72 1005.59 1005.66 1006.45 1007.14 1007.40 1007.97 1008.42 1009.11 1009.29 1009.95 1010.54 1011.07 1011.38 1010.90 1010.66 1010.72 1010.58 1010.61 1010.95 1011.08 1011.40
1015.62 1014.85 1014.22 1013.12 1012.30 1013.00 1011.85 1011.08 1011.09 1011.05 1010.13 1006.99 1005.44 1003.82 1003.90 1003.77 1003.35 1002.49 1002.50 1002.64 1003.34 1004.21 1005.17 1005.29 1004.80 1005.31 1006.07 1006.71 1006.88 1007.78 1007.90 1008.74 1009.61 1010.37 1011.52 1011.84 1012.28 1011.11 1010.73 1010.70 1010.48 1010.12 1010.65 1010.67 1011.13
1015.38 1014.70 1014.42 1014.16 1013.89 1013.12 1011.41 1011.08 1010.70 1010.85 1009.22 1006.02 1004.45 1003.09 1003.26 1003.32 1002.40 1002.07 1001.89 1002.17 1003.23 1004.02 1004.74 1004.74 1004.69 1005.30 1005.95 1005.99 1006.48 1007.87 1008.02 1009.24 1010.44 1011.41 1012.24 1012.51 1012.29 1010.93 1010.56 1010.70 1010.17 1009.80 1009.80 1010.38 1010.46
1014.93 1014.40 1014.24 1014.08 1013.99 1011.62 1011.07 1010.88 1010.60 1010.55 1008.22 1005.46 1004.00 1003.44 1003.56 1003.00 1002.30 1002.14 1002.08 1002.22 1002.88 1003.93 1004.37 1004.35 1004.20 1004.46 1005.20 1005.84 1006.42 1007.88 1008.73 1010.02 1011.28 1012.19 1013.22 1012.66 1012.56 1011.15 1010.18 1009.30 1009.25 1009.04 1009.08 1009.44 1009.98
1014.31 1013.59 1013.99 1013.63 1012.32 1011.28 1011.13 1010.69 1011.06 1009.88 1007.32 1006.24 1005.03 1004.18 1003.89 1003.31 1002.66 1002.24 1002.51 1003.00 1003.33 1004.35 1005.04 1004.85 1004.35 1004.53 1004.97 1006.47 1007.22 1007.77 1009.18 1011.32 1012.72 1013.26 1013.47 1012.92 1012.50 1010.02 1008.65 1008.18 1007.89 1007.94 1007.98 1008.50 1008.92
1013.62 1012.72 1012.53 1012.11 1011.58 1011.40 1011.32 1011.06 1010.94 1009.02 1007.82 1006.58 1005.73 1004.98 1004.49 1003.67 1003.16 1002.83 1002.95 1003.61 1003.70 1004.04 1005.32 1005.26 1004.87 1004.38 1004.49 1005.52 1006.73 1008.21 1009.07 1010.74 1012.45 1013.82 1013.34 1012.95 1011.51 1008.51 1007.46 1007.03 1006.86 1007.07 1007.60 1008.05 1008.54
1013.03 1012.51 1012.45 1011.43 1011.56 1011.85 1011.71 1011.50 1010.04 1008.98 1007.84 1007.05 1006.29 1005.66 1005.04 1004.21 1003.77 1003.38 1003.59 1003.73 1003.57 1003.73 1004.41 1005.07 1004.68 1003.95 1004.29 1004.88 1005.68 1007.97 1009.32 1010.11 1011.99 1013.51 1013.03 1011.99 1009.97 1007.84 1006.80 1006.83 1006.87 1007.05 1007.53 1007.70 1007.88
1013.76 1013.23 1012.10 1011.31 1011.48 1011.71 1011.77 1011.16 1009.99 1008.72 1007.71 1007.16 1006.84 1006.46 1005.93 1005.36 1004.61 1003.93 1003.96 1003.30 1003.33 1003.34 1002.97 1004.44 1004.71 1004.29 1004.83 1004.51 1006.02 1006.56 1008.35 1009.88 1010.97 1012.54 1012.71 1011.64 1010.01 1008.21 1007.10 1006.77 1006.77 1007.17 1007.43 1007.39 1007.74
1013.92 1013.25 1012.01 1011.54 1011.78 1011.89 1012.05 1011.17 1009.66 1008.39 1007.80 1007.26 1007.07 1006.71 1006.47 1006.06 1005.37 1004.68 1004.03 1003.25 1002.58 1003.26 1003.34 1004.26 1004.76 1004.96 1004.88 1004.94 1005.75 1007.15 1008.01 1009.31 1010.38 1011.27 1011.66 1011.38 1009.48 1007.33 1006.66 1006.35 1006.58 1006.88 1007.21 1007.41 1007.90
1015.05 1013.89 1012.16 1011.90 1012.34 1012.86 1012.09 1010.58 1009.10 1008.32 1007.73 1007.37 1007.08 1006.96 1006.66 1006.26 1005.86 1005.26 1004.40 1003.41 1002.53 1002.64 1003.73 1004.04 1004.82 1005.25 1005.03 1004.85 1005.11 1005.71 1006.86 1008.66 1009.21 1011.06 1010.92 1009.92 1008.28 1006.62 1006.22 1006.05 1006.32 1006.85 1007.40 1007.92 1008.50
1016.44 1015.08 1012.30 1012.13 1012.76 1012.87 1011.73 1010.35 1009.20 1008.47 1007.82 1007.64 1007.46 1007.12 1006.92 1006.80 1006.56 1005.86 1004.70 1003.40 1003.02 1003.15 1002.88 1003.92 1004.89 1005.44 1005.34 1005.19 1005.33 1005.54 1006.09 1006.80 1007.46 1008.60 1009.62 1009.19 1007.91 1006.68 1006.51 1006.62 1006.97 1007.39 1008.12 1008.75 1009.37
1016.86 1015.78 1013.59 1012.87 1012.94 1012.56 1011.72 1010.44 1009.32 1008.26 1007.83 1007.56 1007.43 1007.33 1007.35 1007.25 1006.92 1006.38 1005.30 1003.94 1003.44 1003.32 1003.02 1002.95 1004.92 1005.08 1004.99 1004.44 1004.48 1004.82 1005.08 1005.90 1006.36 1007.44 1008.63 1008.05 1007.39 1006.95 1006.93 1007.12 1007.68 1008.16 1008.82 1009.38 1010.13
1017.22 1016.37 1015.24 1014.03 1013.29 1012.66 1011.85 1010.70 1009.49 1008.66 1008.02 1007.59 1007.64 1007.50 1007.46 1007.65 1007.18 1006.69 1005.69 1005.10 1003.79 1003.32 1003.47 1003.60 1004.55 1004.77 1004.30 1003.88 1004.04 1003.89 1003.98 1004.42 1005.31 1005.45 1006.17 1006.26 1006.89 1006.59 1006.59 1007.14 1007.76 1008.52 1009.32 1009.99 1010.72
1017.46 1017.26 1016.05 1014.88 1013.58 1012.70 1011.62 1010.54 1009.61 1008.97 1008.37 1007.88 1007.61 1007.35 1007.28 1007.54 1007.21 1006.78 1006.31 1005.63 1005.00 1004.50 1004.17 1003.88 1004.62 1004.80 1004.66 1003.92 1003.71 1003.46 1003.28 1003.77 1004.33 1005.05 1004.99 1005.47 1006.27 1006.24 1006.87 1007.56 1008.25 1008.84 1009.36 1010.38 1011.01
1017.72 1017.23 1016.86 1015.11 1013.86 1012.80 1011.30 1010.13 1009.20 1008.84 1008.17 1007.43 1007.22 1007.07 1007.10 1007.03 1006.70 1006.12 1005.98 1005.98 1005.71 1005.97 1006.01 1005.73 1004.62 1005.52 1005.22 1003.91 1003.81 1003.14 1002.06 1002.58 1003.37 1003.73 1004.14 1004.93 1005.01 1006.22 1007.16 1007.83 1008.08 1008.75 1009.44 1010.28 1011.02
Thickness
5749 5751 5756 5760 5766 5771 5777 5783 5787 5791 5796 5801 5804 5812 5816 5824 5832 5832 5838 5862 5862 5859 5852 5844 5837 5833 5827 5813 5812 5804 5762 5750 5762 5760 5764 5782 5772 5781 5784 5773 5777 5777 5769 5770 5768
5745 5749 5753 5757 5761 5768 5775 5781 5786 5790 5796 5800 5805 5811 5815 5820 5827 5833 5872 5873 5867 5861 5846 5838 5830 5830 5815 5811 5810 5791 5763 5769 5790 5785 5778 5783 5779 5779 5773 5770 5767 5768 5771 5772 5768
5742 5745 5750 5755 5759 5765 5772 5780 5786 5790 5794 5799 5806 5809 5814 5819 5824 5848 5879 5875 5867 5861 5853 5849 5840 5826 5808 5816 5812 5799 5777 5796 5801 5799 5794 5785 5781 5787 5773 5763 5770 5765 5766 5769 5767
5740 5743 5748 5752 5758 5763 5770 5778 5785 5789 5792 5797 5806 5808 5814 5816 5801 5861 5877 5873 5867 5859 5852 5841 5832 5817 5807 5806 5815 5801 5807 5808 5804 5803 5793 5785 5790 5781 5782 5780 5786 5781 5776 5772 5767
5737 5741 5745 5750 5755 5761 5769 5777 5784 5789 5791 5796 5804 5808 5814 5814 5826 5867 5871 5870 5861 5855 5845 5835 5827 5822 5807 5810 5812 5807 5810 5815 5809 5803 5798 5796 5784 5783 5781 5788 5788 5784 5777 5772 5770
5732 5737 5742 5747 5753 5760 5767 5775 5783 5789 5791 5796 5801 5805 5807 5802 5858 5862 5868 5864 5859 5852 5846 5843 5831 5831 5814 5809 5806 5813 5815 5808 5805 5796 5794 5786 5780 5785 5782 5787 5782 5780 5774 5773 5773
5725 5731 5737 5744 5750 5757 5766 5775 5783 5790 5793 5797 5800 5803 5804 5815 5856 5858 5861 5859 5861 5858 5844 5849 5848 5830 5820 5806 5819 5810 5796 5801 5794 5793 5786 5792 5770 5771 5784 5785 5779 5777 5776 5776 5777
5719 5726 5732 5740 5747 5756 5766 5776 5783 5791 5796 5799 5800 5799 5800 5844 5850 5850 5855 5855 5861 5859 5850 5852 5852 5830 5818 5816 5803 5790 5785 5765 5788 5793 5785 5783 5752 5777 5785 5781 5773 5775 5777 5778 5778
5715 5722 5728 5736 5744 5753 5766 5777 5785 5791 5795 5797 5796 5797 5799 5845 5834 5851 5854 5847 5851 5850 5850 5854 5842 5816 5811 5786 5773 5774 5758 5768 5776 5796 5786 5778 5757 5784 5787 5782 5778 5777 5779 5780 5780
5710 5718 5725 5734 5742 5752 5764 5779 5784 5786 5790 5791 5795 5788 5815 5821 5838 5847 5852 5850 5841 5840 5833 5832 5812 5794 5786 5776 5756 5763 5766 5772 5769 5791 5791 5776 5772 5781 5785 5782 5782 5780 5781 5783 5783
5707 5714 5721 5731 5738 5748 5760 5772 5770 5773 5781 5785 5792 5796 5811 5828 5842 5838 5847 5844 5843 5832 5807 5820 5795 5783 5791 5796 5803 5796 5783 5772 5786 5799 5786 5776 5777 5779 5786 5784 5782 5782 5780 5783 5787
5701 5709 5716 5727 5735 5745 5750 5757 5752 5755 5753 5789 5791 5796 5811 5822 5808 5829 5847 5829 5825 5803 5812 5799 5786 5805 5811 5806 5801 5795 5781 5780 5793 5801 5791 5778 5777 5784 5786 5787 5790 5787 5784 5787 5790
5695 5703 5711 5723 5732 5738 5737 5748 5750 5755 5743 5777 5791 5796 5807 5815 5805 5811 5833 5831 5820 5804 5807 5794 5812 5820 5810 5801 5799 5797 5788 5784 5788 5793 5790 5780 5766 5781 5793 5795 5797 5797 5797 5797 5793
5691 5698 5704 5716 5726 5720 5736 5745 5746 5749 5730 5764 5780 5798 5809 5814 5806 5833 5841 5835 5823 5805 5806 5808 5826 5818 5806 5804 5807 5790 5809 5805 5794 5779 5750 5777 5734 5768 5782 5785 5793 5798 5796 5799 5797
5688 5694 5698 5702 5705 5715 5736 5739 5744 5744 5707 5775 5782 5814 5809 5803 5820 5823 5847 5837 5809 5812 5814 5806 5815 5808 5802 5812 5817 5802 5813 5797 5787 5767 5761 5764 5747 5768 5783 5777 5789 5799 5805 5803 5806
5688 5692 5695 5698 5700 5722 5730 5734 5739 5713 5704 5759 5784 5780 5788 5802 5811 5822 5828 5842 5834 5816 5817 5817 5837 5830 5823 5821 5822 5813 5798 5787 5774 5764 5738 5760 5754 5760 5774 5794 5802 5811 5814 5816 5812
5690 5695 5693 5697 5712 5720 5723 5730 5701 5690 5747 5747 5758 5771 5778 5783 5798 5807 5802 5799 5790 5772 5781 5806 5818 5830 5830 5807 5815 5807 5785 5738 5738 5736 5735 5757 5750 5774 5806 5813 5820 5822 5824 5825 5825
5690 5698 5701 5707 5713 5715 5717 5710 5691 5718 5725 5747 5753 5758 5763 5781 5788 5798 5791 5783 5805 5799 5773 5775 5777 5817 5834 5818 5802 5798 5789 5750 5736 5721 5742 5754 5751 5792 5821 5833 5837 5839 5835 5835 5831
5690 5695 5698 5707 5706 5704 5705 5681 5696 5710 5732 5734 5742 5750 5761 5763 5779 5790 5784 5783 5803 5808 5785 5774 5787 5833 5835 5832 5827 5797 5781 5790 5746 5739 5745 5757 5785 5816 5834 5830 5836 5833 5834 5836 5840
5677 5682 5692 5701 5699 5699 5688 5686 5704 5719 5732 5735 5728 5735 5737 5743 5765 5773 5773 5797 5804 5818 5831 5802 5789 5822 5824 5838 5822 5814 5806 5776 5762 5746 5753 5755 5772 5785 5821 5830 5834 5832 5832 5839 5842
5667 5679 5688 5691 5689 5686 5673 5681 5703 5718 5727 5727 5724 5729 5736 5739 5751 5760 5773 5801 5818 5814 5824 5807 5797 5801 5818 5813 5800 5798 5792 5786 5778 5765 5746 5741 5769 5813 5829 5837 5835 5836 5840 5842 5844
5642 5665 5675 5678 5669 5647 5665 5684 5707 5712 5721 5723 5728 5729 5735 5744 5748 5755 5764 5787 5815 5816 5801 5813 5792 5782 5800 5822 5825 5818 5805 5787 5782 5770 5755 5764 5781 5840 5841 5846 5846 5843 5844 5842 5841
5616 5621 5658 5662 5652 5651 5664 5679 5694 5698 5705 5708 5713 5721 5733 5734 5737 5747 5768 5797 5806 5805 5799 5807 5778 5761 5778 5800 5815 5811 5810 5806 5795 5786 5772 5775 5786 5838 5838 5842 5844 5839 5836 5835 5835
5597 5615 5634 5639 5635 5649 5657 5665 5675 5694 5699 5706 5711 5718 5721 5724 5732 5738 5759 5785 5797 5806 5819 5821 5778 5781 5764 5797 5809 5810 5818 5809 5812 5794 5777 5792 5815 5832 5834 5835 5834 5835 5834 5834 5832
5576 5588 5602 5619 5624 5634 5641 5651 5662 5671 5687 5695 5698 5705 5708 5705 5721 5727 5751 5765 5790 5800 5804 5803 5778 5790 5806 5818 5815 5819 5827 5823 5813 5816 5814 5822 5818 5831 5837 5838 5838 5837 5835 5832 5829
5554 5558 5562 5576 5596 5611 5618 5633 5647 5657 5668 5675 5687 5702 5708 5704 5714 5725 5742 5759 5761 5781 5790 5794 5783 5788 5794 5812 5813 5814 5827 5827 5825 5818 5826 5824 5825 5843 5842 5841 5837 5835 5836 5829 5827
5519 5527 5534 5551 5571 5591 5604 5623 5639 5647 5662 5679 5687 5692 5695 5706 5720 5735 5743 5747 5755 5757 5758 5758 5777 5769 5771 5807 5801 5789 5821 5824 5826 5832 5834 5824 5843 5841 5835 5839 5838 5836 5836 5831 5828